TimeMST,TemperatureF,Dew PointF,Humidity,Sea Level PressureIn,VisibilityMPH,Wind Direction,Wind SpeedMPH,Gust SpeedMPH,PrecipitationIn,Events,Conditions,WindDirDegrees,DateUTC
12:48 AM,10.9,1.9,67,30.54,-9999.0,SSE,3.5,-,N/A,,Unknown,160,2013-12-29 07:48:00
1:48 AM,10.9,3.0,70,30.54,-9999.0,Calm,Calm,-,N/A,,Unknown,0,2013-12-29 08:48:00
2:48 AM,10.9,3.0,70,30.50,-9999.0,ESE,3.5,-,N/A,,Unknown,110,2013-12-29 09:48:00
3:48 AM,10.0,3.0,73,30.49,-9999.0,Calm,Calm,-,N/A,,Unknown,0,2013-12-29 10:48:00
4:48 AM,8.1,1.0,73,30.45,-9999.0,South,3.5,-,N/A,,Unknown,180,2013-12-29 11:48:00
5:48 AM,6.1,-0.9,73,30.43,-9999.0,South,3.5,-,N/A,,Unknown,180,2013-12-29 12:48:00
6:48 AM,10.0,1.9,70,30.38,-9999.0,Calm,Calm,-,N/A,,Unknown,0,2013-12-29 13:48:00
7:48 AM,9.0,1.9,73,30.36,-9999.0,Calm,Calm,-,N/A,,Unknown,0,2013-12-29 14:48:00
8:48 AM,10.9,3.0,70,30.33,-9999.0,SE,3.5,-,N/A,,Unknown,130,2013-12-29 15:48:00
9:48 AM,12.0,3.9,70,30.29,-9999.0,East,4.6,-,N/A,,Unknown,90,2013-12-29 16:48:00
10:48 AM,16.0,7.0,68,30.23,-9999.0,Calm,Calm,-,N/A,,Unknown,0,2013-12-29 17:48:00
11:48 AM,19.9,10.9,68,30.17,-9999.0,South,8.1,-,N/A,,Unknown,170,2013-12-29 18:48:00
12:48 PM,21.9,12.0,66,30.09,-9999.0,South,4.6,-,N/A,,Unknown,180,2013-12-29 19:48:00
1:48 PM,25.0,14.0,63,30.03,-9999.0,South,4.6,-,N/A,,Unknown,170,2013-12-29 20:48:00
2:48 PM,27.0,16.0,63,30.00,-9999.0,SSW,5.8,-,N/A,,Unknown,200,2013-12-29 21:48:00
3:48 PM,28.0,17.1,63,29.98,-9999.0,SSW,6.9,-,N/A,,Unknown,210,2013-12-29 22:48:00
4:48 PM,30.9,21.0,67,29.96,-9999.0,West,10.4,-,N/A,,Unknown,260,2013-12-29 23:48:00
5:48 PM,33.1,27.0,78,29.94,-9999.0,West,13.8,-,0.01,,Unknown,260,2013-12-30 00:48:00
6:48 PM,34.0,28.9,82,29.93,-9999.0,West,10.4,-,N/A,,Unknown,260,2013-12-30 01:48:00
7:48 PM,34.0,28.0,79,29.92,-9999.0,West,6.9,-,N/A,,Unknown,270,2013-12-30 02:48:00
8:48 PM,34.0,26.1,73,29.92,-9999.0,West,9.2,-,N/A,,Unknown,270,2013-12-30 03:48:00
9:48 PM,35.1,24.1,64,29.93,-9999.0,WNW,15.0,-,N/A,,Unknown,290,2013-12-30 04:48:00
10:48 PM,33.1,23.0,66,29.95,-9999.0,West,6.9,-,N/A,,Unknown,270,2013-12-30 05:48:00
11:48 PM,33.1,23.0,66,29.96,-9999.0,West,10.4,-,N/A,,Unknown,280,2013-12-30 06:48:00